Flag for U.S.A. Weather past 2 weeks in St. Augustine, Florida, U.S.A.

Now
73 °F

Scattered clouds.


Feels Like: 73 °F
Forecast: 66 / 82 °F
Wind: 5 mph from Northwest

Location: St. Augustine Airport

Current Time: Oct 21, 2014 at 10:34:56 AM

Latest Report: Oct 21, 2014 at 9:58 AM


Visibility: 10 mi

Pressure: 30.00 "Hg

Humidity: 81%

Dew point: 67 °F

Location of St. AugustineLocation

Historic Weather in St. Augustine — Graph

°F

St. Augustine temperature yesterday

Maximum temperature yesterday: 80 °F (at 1:58 PM)
Minimum temperature yesterday: 71 °F (at 12:58 AM)
Average temperature yesterday: 76 °F

Past Weeks' High & Low Weather Summary

 TemperatureHumidityPressure
High87 °F (Oct 14, 12:58 PM)100% (Oct 9, 6:58 AM)30.17 "Hg (Oct 9, 6:58 AM)
Low58 °F (Oct 16, 5:58 AM)36% (Oct 16, 4:58 PM)29.87 "Hg (Oct 16, 2:58 PM)
Average74 °F76%30.03 "Hg
* Reported Oct 6 8:58 AM — Oct 21 8:58 AM, St. Augustine, Weather by CustomWeather, © 2014

Note: Actual official high and low records may vary slightly from our data, if they occured in-between our weather recording intervals... More about our weather records

Advertising

St. Augustine weather history for previous 24 hours

 ConditionsComfort  
Time TempWeatherWind HumidityBarometerVisibility
8:58 AM
Oct 21
70 °FSunny.3 mph87%29.98 "Hg10 mi
7:58 AM68 °FClear.6 mph93%29.97 "Hg10 mi
6:58 AM68 °FClear.7 mph93%29.95 "Hg10 mi
5:58 AM67 °FClear.5 mph97%29.94 "Hg10 mi
4:58 AM68 °FClear.No wind93%29.94 "Hg10 mi
3:58 AM69 °FClear.6 mph93%29.95 "Hg10 mi
2:58 AM69 °FClear.5 mph93%29.96 "Hg10 mi
1:58 AM70 °FClear.5 mph90%29.97 "Hg10 mi
12:58 AM70 °FClear.No wind90%29.97 "Hg10 mi
11:58 PM
Oct 20
71 °FClear.No wind87%29.99 "Hg10 mi
10:58 PM74 °FClear.3 mph82%29.99 "Hg10 mi
9:58 PM74 °FClear.5 mph79%29.99 "Hg10 mi
8:58 PM74 °FClear.5 mph79%29.99 "Hg10 mi
7:58 PM74 °FClear.6 mph79%29.98 "Hg10 mi
6:58 PM75 °FSunny.7 mph76%29.98 "Hg10 mi
5:58 PM79 °FSunny.14 mph67%29.98 "Hg10 mi
4:58 PM79 °FSunny.13 mph65%29.98 "Hg10 mi
3:58 PM80 °FPassing clouds.12 mph64%29.99 "Hg10 mi
2:58 PM79 °FPartly sunny.12 mph65%30.00 "Hg10 mi
1:58 PM80 °FPassing clouds.13 mph62%30.02 "Hg10 mi
12:58 PM79 °FPartly sunny.10 mph65%30.05 "Hg10 mi
11:58 AM79 °FMostly cloudy.8 mph60%30.08 "Hg10 mi
10:58 AM79 °FMostly cloudy.9 mph60%30.09 "Hg10 mi
Weather by CustomWeather, © 2014

See weather overviewHow to use our weather pages